Lid_Strength_Index
12 12 11 11 11 11 11 12 13 13 14 14 14 14 14 14 14 15 15 15 14 14 13 13 13 13 12 12 11 11 11 11
12 12 12 12 12 12 12 13 13 13 14 14 14 14 14 14 14 15 15 15 14 13 13 13 13 12 12 12 11 12 12 11
13 13 13 13 13 13 13 13 13 14 14 14 14 14 14 15 15 15 15 15 14 14 14 14 13 13 13 12 12 12 12 13
14 13 13 13 13 13 13 13 14 14 14 14 15 15 16 16 16 16 17 17 15 14 14 15 15 14 13 12 12 12 13 13
14 14 13 13 13 13 14 13 14 14 14 15 15 15 16 17 19 19 19 17 17 16 16 17 17 14 13 12 12 13 13 13
14 14 14 14 14 14 14 14 14 15 15 15 15 16 18 19 21 20 16 17 18 18 19 18 16 13 12 12 13 14 14 14
15 14 15 14 14 14 14 14 14 15 15 16 16 18 19 20 22 22 20 17 20 19 19 19 15 14 12 12 14 15 15 15
14 14 14 14 13 14 14 14 15 15 15 17 17 18 19 21 23 22 21 21 19 20 20 19 18 15 13 12 14 15 16 16
13 13 13 13 13 13 14 15 15 15 16 17 17 18 20 21 22 22 22 21 19 19 20 20 18 15 14 13 16 17 17 17
12 13 13 13 13 14 14 14 14 15 15 17 17 18 20 21 22 23 22 21 20 19 19 20 19 16 14 14 16 16 17 17
13 14 13 13 14 14 15 15 14 14 15 16 17 18 19 18 22 23 22 20 19 19 20 20 19 16 15 14 15 17 17 18
16 16 14 14 14 14 14 15 13 13 15 17 17 17 17 18 22 22 22 20 20 19 20 20 19 19 15 13 16 16 17 18
16 17 19 16 15 14 14 14 15 16 17 17 17 17 18 19 20 21 20 20 21 21 20 20 19 18 15 14 13 15 17 18
17 17 19 18 16 16 18 17 18 18 17 17 17 17 18 19 20 20 20 19 19 19 19 19 19 19 14 14 13 13 17 17
17 17 18 18 17 17 18 18 18 17 17 17 17 18 18 18 18 18 19 19 19 19 19 19 20 19 19 17 15 15 15 17
17 17 18 18 18 18 18 18 18 18 18 18 18 18 19 18 18 17 17 17 18 17 17 18 18 18 17 17 18 19 18 24
16 17 18 19 19 19 19 19 19 18 18 18 18 18 18 18 18 16 15 16 15 14 16 17 15 15 14 14 15 15 15 23
18 18 18 19 20 20 20 19 18 18 17 18 18 18 18 18 18 18 17 14 14 14 14 14 16 14 14 13 13 13 15 20
20 21 20 21 22 21 21 20 20 20 19 18 18 18 18 18 18 18 17 18 17 15 14 13 13 14 13 13 12 14 15 21
22 23 23 23 24 23 21 21 21 20 20 19 18 18 18 18 18 19 19 19 19 21 18 15 13 13 13 12 13 17 19 21